Location: Julian California
(33.0790°N, 116.6010°W)
Time: 06:14:59
(UTC-07:00)

Genesis I - Pass Details

Date: 19 May 2017
Orbit: 506 x 525 km, 64.5° (Epoch: 28 May)

Event Time Altitude Azimuth Distance (km) Brightness Sun altitude
Rises 20:39:41 0° 332° (NNW) 2,653 8.0 -11.4°
Reaches altitude 10° 20:41:52 10° 334° (NNW) 1,762 6.9 -11.8°
Maximum altitude 20:45:49 79° 60° (ENE) 536 3.2 -12.4°
Enters shadow 20:48:36 19° 147° (SSE) 1,294 4.6 -12.9°
